Wind_Speed
20 19 19 19 19 20 21 21 20 21 21 21 21 21 22 22 22 22 22 23 23 23 22 22 22 23 24 24 24 23 23 23 22 22 23 23 23 23 23 23 23 23 22
19 19 20 20 20 20 20 20 20 20 20 20 20 21 21 21 22 22 22 23 23 23 23 22 23 24 23 23 24 23 24 23 22 22 23 23 23 23 23 23 23 23 23
20 20 20 20 20 20 20 20 19 20 20 20 20 20 20 21 21 21 21 22 22 23 23 23 22 22 22 23 24 24 24 23 23 23 23 24 24 24 24 24 24 23 23
21 21 20 21 20 20 20 20 19 20 20 20 20 21 21 21 22 21 21 21 21 22 22 23 22 22 22 23 24 24 24 24 25 25 25 25 24 24 24 24 24 23 24
22 22 22 22 20 20 20 19 19 20 20 20 21 21 21 22 22 22 22 22 22 23 22 23 23 23 23 23 24 25 25 25 26 26 26 26 26 25 24 24 24 24 24
22 22 22 22 21 20 20 20 20 20 20 20 20 20 21 22 22 22 21 22 22 23 23 24 24 24 24 23 24 25 25 26 26 26 26 27 27 26 26 26 25 26 26
21 21 21 21 20 20 20 20 20 19 20 20 20 20 21 21 21 21 21 21 22 23 24 24 25 25 24 25 25 25 25 26 27 26 26 27 27 28 27 27 27 27 27
21 22 22 21 20 21 21 20 20 20 20 20 20 20 21 21 21 21 21 22 23 23 24 25 25 25 25 26 25 25 26 27 27 27 27 27 28 28 28 28 28 28 28
22 21 22 20 20 21 21 21 21 21 20 20 20 21 21 21 21 22 22 22 23 23 24 24 24 24 25 25 25 25 26 28 29 28 28 29 29 29 29 29 28 29 29
23 22 22 22 21 21 21 21 21 21 21 20 20 20 20 20 21 22 23 22 22 23 23 24 24 24 24 25 25 26 26 27 28 28 29 29 29 29 29 29 30 30 30
21 21 22 22 22 21 21 21 21 21 21 20 20 20 20 20 21 21 22 21 21 22 22 23 23 23 24 25 25 25 26 26 27 28 29 29 30 30 29 30 30 30 30
21 21 21 21 22 22 22 21 21 21 21 21 21 20 21 21 21 22 21 20 21 21 21 22 22 23 23 24 25 26 26 27 27 28 28 28 29 30 30 30 30 30 30
20 21 21 21 21 22 22 22 22 22 22 21 21 21 22 22 22 21 20 20 21 22 22 22 23 23 24 24 25 26 27 27 27 28 28 29 29 29 30 31 31 31 31
21 21 21 21 21 21 21 22 22 22 21 21 21 22 22 21 21 21 21 21 21 22 23 24 24 24 23 24 25 26 26 27 27 27 27 28 29 29 30 31 32 32 32
20 21 21 20 20 20 20 21 22 22 21 21 21 21 20 20 20 21 22 22 23 23 23 24 24 24 24 24 25 25 25 26 27 27 27 28 29 30 30 31 32 32 32
20 21 20 20 20 20 20 21 21 21 22 22 22 21 20 20 21 22 22 23 23 23 24 24 24 25 25 25 25 25 25 26 27 27 28 28 29 29 30 31 31 31 31
21 21 20 19 19 19 20 20 20 20 21 22 22 21 21 21 22 23 23 23 23 23 23 23 23 23 23 23 24 24 24 25 26 26 27 27 28 28 28 28 28 28 29
19 19 20 20 20 19 19 19 20 20 20 21 21 20 21 21 22 22 22 22 22 22 22 22 22 22 22 22 23 23 23 24 25 25 26 26 27 28 28 28 28 28 29
20 20 20 20 20 20 20 20 20 20 20 20 21 21 21 21 21 21 21 21 22 22 22 22 22 22 22 23 23 24 24 24 24 25 25 26 26 26 26 26 27 27 28
21 21 21 21 21 21 20 20 20 21 21 21 21 22 22 22 21 21 21 21 21 21 22 22 21 21 22 23 23 24 24 25 25 25 25 26 26 25 25 25 26 26 27
23 22 22 21 21 21 21 21 21 21 21 22 22 22 21 21 21 21 21 21 21 21 21 21 22 22 22 22 23 24 24 25 25 25 25 25 26 26 26 26 26 26 26
24 24 24 24 23 22 22 22 22 23 23 22 22 22 21 20 21 21 21 21 21 22 22 22 23 23 24 23 23 24 24 24 25 25 25 26 26 27 27 27 26 26 26
25 25 24 25 24 24 24 23 23 23 23 22 22 22 21 21 21 22 22 22 22 23 24 24 24 24 24 24 23 24 25 25 26 26 26 26 26 26 26 26 27 27 27
26 26 26 25 25 25 24 24 23 23 23 23 23 23 22 22 23 23 23 23 24 24 25 25 25 24 24 25 25 25 25 26 26 26 27 27 26 26 26 26 27 27 27
26 26 26 25 25 25 25 25 25 25 25 25 24 24 25 25 25 25 25 25 25 25 26 25 26 26 25 25 26 26 26 27 27 27 27 27 27 27 27 26 27 27 28
24 24 24 24 24 24 25 24 25 25 25 25 25 25 25 25 26 26 26 26 26 26 26 26 26 27 27 27 27 27 28 28 28 27 27 26 26 26 27 26 26 27 27
Wind_Direction
272 273 275 277 281 282 284 284 280 280 279 277 274 272 272 273 274 274 273 270 268 268 269 267 266 265 264 262 263 261 262 262 258 255 257 258 260 261 262 261 261 263 264
272 272 274 278 281 282 283 283 280 279 277 277 274 273 273 274 275 275 273 270 267 266 267 268 266 265 265 264 262 263 264 263 258 254 255 258 260 261 261 260 262 264 265
272 273 275 279 281 281 280 282 280 279 277 275 274 274 275 276 277 277 273 270 268 267 267 267 266 266 265 264 262 263 262 260 257 256 255 257 259 262 261 260 261 264 265
272 274 276 279 280 279 277 278 279 280 278 276 276 275 275 275 276 276 273 271 269 268 270 268 267 267 266 265 263 262 262 260 259 258 257 257 259 262 263 262 261 263 264
271 273 276 278 278 278 277 277 279 280 279 278 276 275 275 276 276 274 271 270 267 267 268 268 268 268 267 267 265 262 261 260 260 259 257 257 258 260 263 263 263 264 265
271 271 273 275 276 276 275 278 281 281 280 279 276 275 276 275 276 276 272 269 267 267 266 267 269 268 268 268 268 265 261 260 260 260 259 258 257 260 263 263 263 263 264
271 271 273 274 275 276 275 276 280 281 280 279 277 277 278 277 278 277 274 272 270 268 269 270 269 268 268 269 269 266 262 260 260 260 260 259 259 260 262 264 263 263 264
271 272 274 274 276 277 275 277 279 281 280 280 280 279 278 278 278 277 275 273 270 270 271 271 270 268 268 269 268 265 262 261 261 260 261 260 260 261 263 264 263 263 265
270 272 274 273 275 276 275 276 278 281 281 279 281 279 278 277 277 276 274 273 271 271 271 271 271 269 269 269 268 265 264 264 263 262 262 261 262 262 262 263 263 264 266
270 273 273 273 275 275 274 274 276 278 281 279 281 279 279 279 278 276 275 274 273 274 273 272 271 270 270 270 269 266 267 267 265 264 263 262 263 263 262 263 264 264 265
271 273 274 273 275 275 274 274 274 276 278 279 279 279 279 280 280 278 276 274 274 274 274 274 272 271 272 271 269 268 268 268 268 266 265 264 263 263 263 263 264 265 265
270 273 276 274 274 274 274 273 273 275 278 278 278 278 279 279 279 277 275 274 274 273 274 275 274 274 273 271 269 271 270 270 269 268 267 265 265 264 263 264 265 265 265
269 272 275 275 274 272 272 273 271 272 275 276 277 278 278 278 277 276 275 272 271 273 275 276 277 275 274 273 272 272 271 270 270 269 267 266 266 265 264 264 265 265 265
268 271 274 274 274 273 272 271 272 273 273 274 275 277 278 277 276 275 276 276 276 277 278 278 278 278 276 275 274 273 272 272 272 271 269 268 267 267 266 266 266 266 265
267 275 278 275 273 273 273 272 272 272 272 273 275 276 276 275 276 276 277 279 280 280 279 279 279 278 278 276 275 275 274 272 273 272 271 269 269 269 269 268 268 267 266
268 273 275 276 273 271 273 273 273 274 273 274 274 274 273 272 276 278 278 279 281 282 282 281 279 280 279 277 275 275 275 275 275 273 271 272 272 272 271 271 270 269 268
266 268 271 275 275 273 272 272 274 275 275 276 275 274 274 275 278 281 281 282 282 282 282 282 281 280 279 279 277 277 276 275 275 275 275 275 275 274 273 272 272 270 269
268 269 268 271 273 272 272 272 272 274 278 279 277 277 278 279 281 282 282 282 283 281 281 282 281 280 279 279 278 279 279 278 277 277 276 275 275 274 273 271 271 271 270
270 272 270 270 270 270 271 272 273 274 276 279 279 279 281 281 282 283 283 283 283 283 282 282 282 280 279 279 280 280 279 279 280 280 278 276 276 275 274 272 271 271 271
272 275 271 269 269 270 271 273 274 274 276 278 278 279 280 282 284 285 285 285 284 283 284 283 283 282 281 281 281 281 281 281 282 282 280 278 276 276 274 274 273 273 273
271 274 272 270 271 270 271 273 274 275 277 279 280 280 281 283 285 285 285 285 284 284 282 282 283 283 281 281 281 282 283 283 284 284 283 280 277 275 274 275 274 273 273
270 273 272 271 271 270 270 271 272 274 276 278 279 279 280 281 283 284 284 284 285 285 284 283 283 283 283 283 283 282 283 283 283 283 283 282 279 277 275 274 274 274 272
270 272 273 273 271 269 269 271 273 274 274 275 277 278 279 280 281 283 284 283 284 285 285 283 282 282 282 282 282 283 284 285 285 283 283 282 280 278 276 276 276 275 273
271 272 274 273 270 269 268 270 272 272 273 275 276 277 277 279 280 282 283 283 283 283 284 284 283 282 282 282 282 283 284 285 286 286 284 282 280 278 278 277 277 275 274
272 272 273 271 268 268 268 269 270 271 272 274 275 276 277 278 279 281 282 282 282 283 284 284 284 283 283 283 283 284 284 284 285 285 284 282 279 278 278 278 278 277 275
274 274 274 272 268 266 267 268 270 271 272 274 275 276 277 279 280 281 281 281 282 283 284 285 285 284 284 285 285 284 283 283 284 283 283 282 280 278 278 277 278 278 276
Height
5808 5808 5807 5807 5806 5805 5804 5803 5803 5802 5802 5801 5801 5801 5801 5801 5800 5800 5800 5800 5800 5800 5800 5801 5801 5801 5802 5803 5804 5805 5806 5807 5808 5809 5809 5809 5810 5810 5811 5812 5812 5813 5814
5802 5802 5802 5801 5800 5799 5798 5797 5796 5796 5796 5795 5795 5795 5795 5794 5794 5793 5793 5793 5794 5794 5794 5794 5795 5795 5796 5796 5797 5798 5799 5800 5801 5802 5803 5803 5803 5804 5805 5806 5806 5807 5807
5796 5796 5796 5795 5794 5793 5792 5791 5791 5790 5790 5789 5789 5789 5788 5788 5787 5787 5787 5787 5787 5788 5788 5788 5788 5788 5789 5789 5790 5791 5792 5793 5794 5795 5796 5796 5797 5798 5798 5799 5800 5800 5801
5790 5790 5790 5789 5788 5787 5786 5786 5785 5784 5784 5783 5783 5782 5782 5781 5781 5781 5781 5781 5781 5781 5781 5781 5781 5782 5782 5782 5783 5784 5785 5786 5787 5788 5789 5790 5790 5791 5792 5792 5793 5793 5794
5784 5784 5784 5783 5782 5781 5780 5780 5779 5778 5778 5777 5776 5776 5775 5775 5775 5774 5774 5774 5774 5774 5774 5774 5775 5775 5775 5775 5776 5777 5777 5778 5779 5780 5781 5782 5783 5784 5785 5785 5786 5787 5787
5778 5777 5777 5777 5776 5775 5775 5774 5773 5772 5771 5771 5770 5769 5769 5768 5768 5767 5767 5767 5767 5767 5767 5767 5767 5768 5768 5768 5768 5769 5770 5771 5772 5772 5773 5774 5775 5776 5777 5778 5778 5779 5780
5771 5771 5771 5771 5770 5769 5769 5768 5767 5766 5765 5765 5764 5763 5762 5762 5761 5761 5761 5760 5760 5760 5759 5759 5760 5760 5760 5761 5761 5761 5762 5763 5764 5765 5765 5766 5767 5768 5769 5770 5771 5771 5772
5765 5765 5765 5764 5764 5763 5763 5762 5761 5760 5759 5758 5757 5757 5756 5755 5755 5754 5754 5754 5753 5753 5752 5752 5752 5752 5753 5753 5753 5754 5754 5755 5755 5756 5757 5758 5759 5760 5761 5762 5763 5763 5764
5759 5758 5758 5758 5757 5757 5756 5756 5755 5753 5752 5751 5751 5750 5749 5749 5748 5748 5747 5746 5746 5746 5745 5745 5744 5744 5745 5745 5746 5746 5747 5747 5747 5747 5748 5749 5750 5751 5752 5754 5754 5755 5755
5752 5752 5751 5751 5750 5750 5750 5749 5748 5747 5746 5745 5744 5743 5743 5742 5741 5741 5740 5740 5739 5739 5738 5738 5737 5737 5737 5737 5738 5738 5739 5739 5739 5739 5740 5741 5742 5743 5744 5745 5745 5746 5746
5745 5745 5744 5744 5743 5743 5742 5742 5741 5741 5740 5739 5738 5737 5737 5736 5735 5734 5733 5733 5732 5732 5731 5731 5730 5730 5730 5730 5730 5730 5731 5731 5731 5731 5732 5732 5733 5734 5735 5736 5736 5737 5738
5738 5738 5737 5737 5736 5736 5735 5735 5734 5734 5733 5732 5732 5731 5730 5729 5729 5728 5727 5726 5726 5726 5725 5725 5724 5723 5723 5723 5723 5723 5723 5723 5723 5723 5723 5724 5724 5725 5726 5727 5727 5728 5728
5731 5731 5730 5730 5729 5729 5728 5728 5727 5727 5727 5726 5725 5724 5724 5723 5722 5722 5721 5720 5720 5719 5719 5718 5717 5717 5716 5716 5716 5715 5715 5715 5715 5715 5715 5716 5716 5716 5717 5717 5718 5719 5719
5725 5724 5724 5723 5723 5722 5721 5721 5721 5720 5720 5720 5719 5718 5718 5717 5716 5716 5715 5714 5713 5713 5712 5711 5710 5709 5709 5709 5708 5707 5707 5707 5707 5707 5706 5707 5707 5707 5707 5707 5708 5708 5709
5718 5718 5718 5717 5716 5715 5715 5714 5714 5714 5714 5714 5713 5712 5712 5711 5711 5710 5709 5708 5707 5706 5705 5704 5703 5702 5701 5701 5700 5699 5699 5698 5698 5698 5698 5697 5697 5697 5698 5698 5698 5698 5699
5713 5712 5712 5711 5710 5710 5709 5709 5708 5707 5707 5707 5706 5706 5705 5705 5704 5703 5702 5701 5700 5699 5698 5697 5696 5695 5694 5693 5692 5692 5691 5690 5690 5689 5689 5688 5688 5688 5688 5687 5687 5687 5688
5706 5706 5706 5705 5705 5704 5703 5703 5702 5702 5701 5701 5700 5699 5699 5699 5698 5697 5696 5695 5693 5692 5691 5690 5688 5687 5686 5685 5685 5684 5683 5682 5682 5681 5680 5680 5679 5679 5678 5678 5678 5678 5679
5700 5700 5699 5699 5699 5698 5698 5697 5697 5696 5696 5695 5694 5693 5693 5692 5691 5690 5689 5688 5687 5685 5684 5683 5682 5680 5679 5679 5678 5677 5676 5675 5674 5673 5672 5671 5671 5670 5670 5669 5669 5669 5670
5693 5693 5693 5693 5692 5692 5692 5692 5691 5691 5690 5689 5688 5688 5687 5686 5685 5683 5682 5681 5680 5679 5677 5676 5675 5673 5672 5672 5671 5670 5669 5668 5666 5665 5664 5663 5662 5661 5661 5661 5661 5661 5661
5687 5687 5686 5686 5686 5686 5686 5685 5685 5684 5684 5683 5682 5682 5681 5680 5678 5677 5676 5674 5673 5672 5671 5669 5668 5667 5665 5664 5663 5662 5661 5660 5658 5657 5655 5654 5653 5653 5653 5653 5652 5652 5652
5680 5680 5680 5679 5679 5679 5679 5679 5679 5678 5677 5677 5676 5675 5674 5673 5672 5671 5669 5668 5667 5665 5664 5663 5661 5660 5658 5657 5656 5654 5653 5652 5650 5649 5647 5646 5645 5645 5644 5644 5644 5644 5644
5672 5672 5672 5672 5672 5672 5672 5672 5672 5671 5671 5670 5669 5669 5667 5666 5665 5664 5663 5662 5660 5659 5657 5656 5654 5653 5652 5650 5648 5647 5646 5644 5643 5641 5640 5638 5637 5637 5636 5636 5636 5636 5635
5664 5664 5664 5664 5664 5664 5664 5664 5664 5664 5664 5663 5662 5662 5661 5660 5659 5658 5656 5655 5653 5652 5650 5649 5647 5645 5644 5642 5641 5639 5638 5636 5635 5634 5632 5631 5630 5629 5628 5628 5627 5627 5627
5656 5656 5655 5655 5656 5656 5656 5656 5656 5656 5656 5656 5655 5654 5654 5653 5652 5651 5649 5648 5646 5644 5643 5641 5640 5638 5636 5635 5633 5632 5630 5628 5627 5625 5624 5623 5622 5621 5620 5619 5619 5618 5618
5647 5647 5647 5647 5647 5648 5648 5648 5648 5648 5648 5648 5647 5647 5646 5645 5644 5643 5641 5640 5638 5637 5635 5633 5632 5630 5628 5627 5625 5623 5622 5620 5618 5616 5615 5614 5613 5612 5612 5611 5610 5610 5609
5639 5639 5639 5639 5639 5639 5640 5640 5640 5640 5640 5639 5639 5638 5638 5637 5636 5635 5633 5632 5630 5629 5627 5625 5623 5622 5620 5618 5616 5615 5613 5611 5609 5608 5606 5605 5604 5604 5603 5602 5602 5601 5600